Location: Northcutt
(34.7304°N, 84.4305°W)
Time: 05:29:02
(UTC+00:00)

Vanguard 2 - Pass Details

Date: 04 October 2022
Orbit: 553 x 2933 km, 32.9° (Epoch: 04 December)

Event Time Altitude Azimuth Distance (km) Brightness Sun altitude
Rises 15:00:52 0° 186° (S) 3,697 11.4 37.9°
Reaches altitude 10° 15:04:34 10° 163° (SSE) 3,134 11.6 38.5°
Maximum altitude 15:08:50 15° 130° (SE) 3,184 12.1 39.1°
Drops below altitude 10° 15:14:12 10° 100° (E) 4,124 12.1 39.9°
Sets 15:20:23 0° 81° (E) 5,680 12.3 40.8°
